• In Germany
  • List of Countries
  • For 7 days
  • Water Temperature
  • Satellite Maps
  • Weather Map
  • Weather Widgets
  • user-avatar
    Login

    Hourly Weather New Braunfels

    Today, 21 January, Sunday

    Time Temperature Precipitation Wind Pressure Humidity
    00:00 +14°C° 0.1 mm 4 mps 740 mmHg 97%
    01:00 +15°C° 0.1 mm 4 mps 740 mmHg 97%
    02:00 +17°C° 0.1 mm 4 mps 739 mmHg 97%
    03:00 +17°C° 0.1 mm 4 mps 739 mmHg 97%
    04:00 +17°C° 0.1 mm 4 mps 739 mmHg 97%
    05:00 +17°C° 0.1 mm 4 mps 739 mmHg 97%
    06:00 +18°C° 0.1 mm 4 mps 739 mmHg 96%
    07:00 +17°C° 0.1 mm 5 mps 739 mmHg 95%
    08:00 +17°C° 0.1 mm 5 mps 740 mmHg 95%
    09:00 +17°C° 0.1 mm 5 mps 740 mmHg 93%
    10:00 +19°C° 0.1 mm 5 mps 740 mmHg 92%
    11:00 +19°C° 0.1 mm 5 mps 740 mmHg 91%
    12:00 +20°C° 0.1 mm 5 mps 739 mmHg 89%
    13:00 +20°C° 0.1 mm 5 mps 738 mmHg 88%
    14:00 +20°C° 0.1 mm 4 mps 738 mmHg 86%
    15:00 +20°C° 0.2 mm 4 mps 738 mmHg 88%
    16:00 +19°C° 0.2 mm 3 mps 738 mmHg 90%
    17:00 +19°C° 0.2 mm 2 mps 738 mmHg 92%
    18:00 +18°C° 0 mm 2 mps 738 mmHg 92%
    19:00 +17°C° 0 mm 2 mps 739 mmHg 92%
    20:00 +17°C° 0 mm 2 mps 739 mmHg 92%
    21:00 +16°C° 0 mm 2 mps 740 mmHg 83%
    22:00 +16°C° 0 mm 3 mps 740 mmHg 75%
    23:00 +14°C° 0 mm 3 mps 741 mmHg 66%

    Tomorrow, 22 January, Monday

    Time Temperature Precipitation Wind Pressure Humidity
    00:00 +13°C° 0 mm 4 mps 741 mmHg 54%
    01:00 +12°C° 0 mm 4 mps 741 mmHg 43%
    02:00 +11°C° 0 mm 4 mps 741 mmHg 31%
    03:00 +11°C° 0 mm 4 mps 742 mmHg 31%
    04:00 +10°C° 0 mm 4 mps 742 mmHg 31%
    05:00 +9°C° 0 mm 5 mps 742 mmHg 31%
    06:00 +9°C° 0 mm 5 mps 743 mmHg 33%
    07:00 +10°C° 0 mm 6 mps 744 mmHg 34%
    08:00 +10°C° 0 mm 6 mps 745 mmHg 35%
    09:00 +11°C° 0 mm 6 mps 745 mmHg 33%
    10:00 +14°C° 0 mm 6 mps 745 mmHg 30%
    11:00 +15°C° 0 mm 6 mps 746 mmHg 28%
    12:00 +16°C° 0 mm 6 mps 745 mmHg 27%
    13:00 +16°C° 0 mm 6 mps 744 mmHg 27%
    14:00 +17°C° 0 mm 6 mps 744 mmHg 27%
    15:00 +16°C° 0 mm 5 mps 744 mmHg 30%
    16:00 +14°C° 0 mm 4 mps 744 mmHg 33%
    17:00 +13°C° 0 mm 3 mps 744 mmHg 37%
    18:00 +13°C° 0 mm 2 mps 745 mmHg 38%
    19:00 +12°C° 0 mm 2 mps 745 mmHg 38%
    20:00 +11°C° 0 mm 1 mps 746 mmHg 39%
    21:00 +10°C° 0 mm 1 mps 746 mmHg 39%
    22:00 +10°C° 0 mm 1 mps 746 mmHg 40%
    23:00 +9°C° 0 mm 1 mps 746 mmHg 40%

    Day after tomorrow, 23 January, Tuesday

    Time Temperature Precipitation Wind Pressure Humidity
    00:00 +9°C° 0 mm 1 mps 746 mmHg 40%
    01:00 +8°C° 0 mm 1 mps 746 mmHg 40%
    02:00 +8°C° 0 mm 1 mps 746 mmHg 40%
    03:00 +8°C° 0 mm 1 mps 746 mmHg 40%
    04:00 +6°C° 0 mm 0 mps 746 mmHg 40%
    05:00 +6°C° 0 mm 0 mps 746 mmHg 40%
    06:00 +7°C° 0 mm 0 mps 747 mmHg 39%
    07:00 +9°C° 0 mm 1 mps 748 mmHg 38%
    08:00 +10°C° 0 mm 1 mps 748 mmHg 37%
    09:00 +12°C° 0 mm 1 mps 748 mmHg 33%
    10:00 +14°C° 0 mm 2 mps 748 mmHg 29%
    11:00 +16°C° 0 mm 3 mps 748 mmHg 25%
    12:00 +16°C° 0 mm 3 mps 748 mmHg 25%
    13:00 +17°C° 0 mm 3 mps 747 mmHg 25%
    14:00 +17°C° 0 mm 4 mps 746 mmHg 25%
    15:00 +16°C° 0 mm 3 mps 746 mmHg 30%
    16:00 +13°C° 0 mm 3 mps 746 mmHg 35%
    17:00 +12°C° 0 mm 3 mps 746 mmHg 41%
    18:00 +11°C° 0 mm 3 mps 747 mmHg 43%
    19:00 +10°C° 0 mm 2 mps 747 mmHg 45%
    20:00 +9°C° 0 mm 2 mps 748 mmHg 48%
    21:00 +9°C° 0 mm 2 mps 748 mmHg 50%
    22:00 +8°C° 0 mm 2 mps 748 mmHg 51%
    23:00 +8°C° 0 mm 2 mps 748 mmHg 53%

    24 January, Wednesday

    Time Temperature Precipitation Wind Pressure Humidity
    00:00 +8°C° 0 mm 2 mps 748 mmHg 54%
    01:00 +7°C° 0 mm 2 mps 748 mmHg 55%
    02:00 +7°C° 0 mm 2 mps 748 mmHg 56%
    03:00 +7°C° 0 mm 2 mps 748 mmHg 57%
    04:00 +5°C° 0 mm 3 mps 748 mmHg 58%
    05:00 +5°C° 0 mm 3 mps 749 mmHg 59%
    06:00 +7°C° 0 mm 3 mps 749 mmHg 57%
    07:00 +8°C° 0 mm 3 mps 750 mmHg 56%
    08:00 +7°C° 0 mm 4 mps 751 mmHg 54%
    09:00 +10°C° 0 mm 4 mps 751 mmHg 49%
    10:00 +12°C° 0 mm 4 mps 751 mmHg 43%
    11:00 +14°C° 0 mm 4 mps 751 mmHg 38%
    12:00 +15°C° 0 mm 4 mps 750 mmHg 36%
    13:00 +16°C° 0 mm 3 mps 749 mmHg 35%
    14:00 +17°C° 0 mm 3 mps 749 mmHg 34%
    15:00 +16°C° 0 mm 3 mps 749 mmHg 38%
    16:00 +14°C° 0 mm 2 mps 749 mmHg 42%
    17:00 +13°C° 0 mm 2 mps 749 mmHg 47%
    18:00 +13°C° 0 mm 2 mps 749 mmHg 49%
    19:00 +12°C° 0 mm 2 mps 750 mmHg 51%
    20:00 +11°C° 0 mm 1 mps 750 mmHg 54%
    21:00 +11°C° 0 mm 1 mps 750 mmHg 55%
    22:00 +10°C° 0 mm 1 mps 750 mmHg 57%
    23:00 +10°C° 0 mm 1 mps 750 mmHg 58%

    25 January, Thursday

    Time Temperature Precipitation Wind Pressure Humidity
    00:00 +9°C° 0 mm 1 mps 750 mmHg 60%
    01:00 +9°C° 0 mm 1 mps 749 mmHg 61%
    02:00 +8°C° 0 mm 1 mps 749 mmHg 63%
    03:00 +8°C° 0 mm 1 mps 749 mmHg 64%
    04:00 +7°C° 0 mm 2 mps 750 mmHg 65%
    05:00 +7°C° 0 mm 2 mps 750 mmHg 66%
    06:00 +7°C° 0 mm 2 mps 750 mmHg 64%
    07:00 +8°C° 0 mm 2 mps 750 mmHg 62%
    08:00 +9°C° 0 mm 2 mps 751 mmHg 61%
    09:00 +10°C° 0 mm 2 mps 751 mmHg 57%
    10:00 +12°C° 0 mm 2 mps 750 mmHg 54%
    11:00 +12°C° 0 mm 3 mps 750 mmHg 50%
    12:00 +13°C° 0 mm 3 mps 749 mmHg 48%
    13:00 +14°C° 0 mm 3 mps 749 mmHg 46%
    14:00 +16°C° 0 mm 3 mps 748 mmHg 43%
    15:00 +15°C° 0 mm 2 mps 748 mmHg 48%
    16:00 +14°C° 0 mm 2 mps 748 mmHg 53%
    17:00 +14°C° 0 mm 2 mps 748 mmHg 57%
    18:00 +14°C° 0 mm 2 mps 748 mmHg 59%
    19:00 +13°C° 0 mm 2 mps 748 mmHg 62%
    20:00 +13°C° 0 mm 2 mps 748 mmHg 64%
    21:00 +13°C° 0 mm 2 mps 748 mmHg 69%
    22:00 +12°C° 0 mm 3 mps 747 mmHg 74%
    23:00 +11°C° 0 mm 3 mps 747 mmHg 78%

    26 January, Friday

    Time Temperature Precipitation Wind Pressure Humidity
    00:00 +11°C° 0.1 mm 3 mps 746 mmHg 82%
    01:00 +11°C° 0.1 mm 3 mps 746 mmHg 85%
    02:00 +11°C° 0.1 mm 3 mps 746 mmHg 88%
    03:00 +11°C° 0.3 mm 3 mps 745 mmHg 90%
    04:00 +11°C° 0.3 mm 3 mps 745 mmHg 92%
    05:00 +12°C° 0.3 mm 3 mps 745 mmHg 94%
    06:00 +12°C° 0.2 mm 4 mps 745 mmHg 94%
    07:00 +13°C° 0.2 mm 4 mps 745 mmHg 93%
    08:00 +13°C° 0.2 mm 5 mps 745 mmHg 93%
    09:00 +14°C° 0.1 mm 5 mps 745 mmHg 93%
    10:00 +14°C° 0.1 mm 5 mps 744 mmHg 92%
    11:00 +15°C° 0.1 mm 5 mps 744 mmHg 92%
    12:00 +15°C° 0.5 mm 4 mps 743 mmHg 93%
    13:00 +15°C° 0.5 mm 4 mps 742 mmHg 95%
    14:00 +15°C° 0.5 mm 4 mps 741 mmHg 96%
    15:00 +15°C° 0.4 mm 4 mps 741 mmHg 96%
    16:00 +17°C° 0.4 mm 4 mps 741 mmHg 97%
    17:00 +16°C° 0.4 mm 5 mps 740 mmHg 97%
    18:00 +16°C° 0.2 mm 5 mps 740 mmHg 96%
    19:00 +17°C° 0.2 mm 6 mps 740 mmHg 96%
    20:00 +17°C° 0.2 mm 6 mps 741 mmHg 95%
    21:00 +17°C° 0.5 mm 6 mps 740 mmHg 96%
    22:00 +17°C° 0.5 mm 6 mps 740 mmHg 96%
    23:00 +17°C° 0.5 mm 5 mps 740 mmHg 96%
    Show more